User: anonymous   Login
Location: Cluny
(50.9333°N, 112.8167°W)
Time: 10:56:37
(UTC-06:00)
Language:

Hamsat - Orbit

View from above orbital plane
View from above orbital plane
View from above satellite
View from above satellite

Ground track
Ground track

The orbit data is extracted from the following two-line orbital elements,

1 28650U 05017B   16211.95873076 +.00000343 +00000-0 +42529-4 0  9996
2 28650 097.6109 192.1004 0025113 115.9514 244.4295 14.88341180608169
Epoch (UTC): 29 July 2016 23:00:34
Eccentricity: 0.0025113
inclination: 97.6109°
perigee height: 585 km
apogee height: 620 km
right ascension of ascending node: 192.1004°
argument of perigee: 115.9514°
revolutions per day: 14.88341180
mean anomaly at epoch: 244.4295°
orbit number at epoch: 60816

The dashed part of the orbit path shows where the satellite is in the earth's shadow,  

DLR